Time,TemperatureF,DewpointF,PressureIn,WindDirection,WindDirectionDegrees,WindSpeedMPH,WindSpeedGustMPH,Humidity,HourlyPrecipIn,Conditions,Clouds,dailyrainin,SoftwareType,DateUTC
2013-07-04 00:01:00,73.9,73.6,30.19,ESE,115,3.5,3.5,99,0.00,RA,,0.00,WeatherDisplay:10.37,2013-07-04 04:01:00,
2013-07-04 00:02:00,73.8,73.5,30.19,ESE,114,0.0,0.0,99,0.00,RA,,0.00,WeatherDisplay:10.37,2013-07-04 04:02:00,
2013-07-04 00:06:00,73.8,73.5,30.19,ESE,114,0.0,0.0,99,0.00,RA,,0.00,WeatherDisplay:10.37,2013-07-04 04:06:00,
2013-07-04 00:11:00,73.7,73.4,30.19,ESE,115,1.2,0.0,99,0.00,,,0.00,WeatherDisplay:10.37,2013-07-04 04:11:00,
2013-07-04 00:16:00,73.7,73.4,30.19,ESE,115,0.0,0.0,99,0.00,,,0.00,WeatherDisplay:10.37,2013-07-04 04:16:00,
2013-07-04 00:21:00,73.7,73.4,30.19,ESE,115,0.0,0.0,99,0.00,,,0.00,WeatherDisplay:10.37,2013-07-04 04:21:00,
2013-07-04 00:26:00,73.5,73.2,30.19,ESE,115,0.0,0.0,99,0.00,,,0.00,WeatherDisplay:10.37,2013-07-04 04:26:00,
2013-07-04 00:32:00,73.4,73.1,30.19,ESE,114,0.0,0.0,99,0.00,,,0.00,WeatherDisplay:10.37,2013-07-04 04:32:00,
2013-07-04 00:37:00,73.3,73.0,30.19,ESE,115,0.0,0.0,99,0.00,,,0.00,WeatherDisplay:10.37,2013-07-04 04:37:00,
2013-07-04 00:42:00,73.3,73.0,30.19,ESE,115,0.0,0.0,99,0.00,,,0.00,WeatherDisplay:10.37,2013-07-04 04:42:00,
2013-07-04 00:47:00,73.3,73.0,30.19,ESE,115,0.0,0.0,99,0.00,,,0.00,WeatherDisplay:10.37,2013-07-04 04:47:00,
2013-07-04 00:52:00,73.2,72.9,30.19,ESE,115,0.0,0.0,99,0.00,,,0.00,WeatherDisplay:10.37,2013-07-04 04:52:00,
2013-07-04 00:57:00,73.1,72.8,30.19,ESE,115,0.0,0.0,99,0.00,,,0.00,WeatherDisplay:10.37,2013-07-04 04:57:00,
2013-07-04 01:02:00,73.1,72.8,30.19,ESE,115,1.2,0.0,99,0.00,,,0.00,WeatherDisplay:10.37,2013-07-04 05:02:00,
2013-07-04 01:07:00,73.2,72.9,30.19,ESE,115,2.0,2.0,99,0.00,,,0.00,WeatherDisplay:10.37,2013-07-04 05:07:00,
2013-07-04 01:12:00,73.3,73.0,30.19,ESE,114,1.2,0.0,99,0.00,,,0.00,WeatherDisplay:10.37,2013-07-04 05:12:00,
2013-07-04 01:17:00,73.4,73.1,30.19,ESE,119,5.0,5.0,99,0.00,,,0.00,WeatherDisplay:10.37,2013-07-04 05:17:00,
2013-07-04 01:22:00,73.6,73.3,30.20,ESE,119,4.0,4.0,99,0.00,,,0.00,WeatherDisplay:10.37,2013-07-04 05:22:00,
2013-07-04 01:28:00,73.7,73.4,30.20,ESE,119,1.2,1.2,99,0.00,,,0.00,WeatherDisplay:10.37,2013-07-04 05:28:00,
2013-07-04 01:33:00,73.7,73.4,30.20,SE,126,3.0,3.0,99,0.00,,,0.00,WeatherDisplay:10.37,2013-07-04 05:33:00,
2013-07-04 01:38:00,73.9,73.6,30.20,South,180,7.0,7.0,99,0.00,,,0.00,WeatherDisplay:10.37,2013-07-04 05:38:00,
2013-07-04 01:43:00,73.9,73.6,30.20,SSE,161,3.5,0.0,99,0.00,,,0.00,WeatherDisplay:10.37,2013-07-04 05:43:00,
2013-07-04 01:48:00,74.0,73.7,30.19,SSE,167,3.5,3.5,99,0.00,,,0.00,WeatherDisplay:10.37,2013-07-04 05:48:00,
2013-07-04 01:53:00,74.0,73.7,30.20,SSE,167,4.6,4.6,99,0.00,,,0.00,WeatherDisplay:10.37,2013-07-04 05:53:00,
2013-07-04 01:58:00,74.1,73.8,30.20,SSE,167,5.0,5.0,99,0.00,,,0.00,WeatherDisplay:10.37,2013-07-04 05:58:00,
2013-07-04 02:03:00,74.1,73.8,30.20,SSE,167,3.5,3.5,99,0.00,,,0.00,WeatherDisplay:10.37,2013-07-04 06:03:00,
2013-07-04 02:08:00,74.2,73.9,30.20,South,169,1.2,0.0,99,0.00,,,0.00,WeatherDisplay:10.37,2013-07-04 06:08:00,
2013-07-04 02:13:00,74.2,73.9,30.20,SSW,192,3.5,3.5,99,0.00,,,0.00,WeatherDisplay:10.37,2013-07-04 06:13:00,
2013-07-04 02:18:00,74.2,73.9,30.19,South,175,4.6,4.6,99,0.01,RA,,0.01,WeatherDisplay:10.37,2013-07-04 06:18:00,
2013-07-04 02:23:00,74.2,73.9,30.19,SSE,152,4.6,4.6,99,0.01,RA,,0.01,WeatherDisplay:10.37,2013-07-04 06:23:00,
2013-07-04 02:28:00,74.2,73.9,30.19,South,178,3.5,3.5,99,0.01,,,0.01,WeatherDisplay:10.37,2013-07-04 06:28:00,
2013-07-04 02:33:00,74.2,73.9,30.18,South,175,4.6,4.6,99,0.01,,,0.01,WeatherDisplay:10.37,2013-07-04 06:33:00,
2013-07-04 02:38:00,74.2,73.9,30.18,SSE,157,6.9,6.9,99,0.01,,,0.01,WeatherDisplay:10.37,2013-07-04 06:38:00,
2013-07-04 02:43:00,74.2,73.9,30.18,ESE,121,6.0,6.0,99,0.01,,,0.01,WeatherDisplay:10.37,2013-07-04 06:43:00,
2013-07-04 02:48:00,74.2,73.9,30.18,SE,136,1.2,0.0,99,0.01,,,0.01,WeatherDisplay:10.37,2013-07-04 06:48:00,
2013-07-04 02:53:00,74.2,73.9,30.18,SE,144,6.9,6.9,99,0.01,,,0.01,WeatherDisplay:10.37,2013-07-04 06:53:00,
2013-07-04 02:59:00,74.2,73.9,30.18,SSW,201,5.8,5.8,99,0.01,,,0.01,WeatherDisplay:10.37,2013-07-04 06:59:00,
2013-07-04 03:04:00,74.2,73.9,30.18,South,186,6.9,6.9,99,0.01,,,0.01,WeatherDisplay:10.37,2013-07-04 07:04:00,
2013-07-04 03:09:00,74.2,73.9,30.18,SW,217,7.0,7.0,99,0.01,,,0.01,WeatherDisplay:10.37,2013-07-04 07:09:00,
2013-07-04 03:14:00,74.2,73.9,30.18,South,171,4.0,4.0,99,0.01,,,0.01,WeatherDisplay:10.37,2013-07-04 07:14:00,
2013-07-04 03:19:00,74.2,73.9,30.18,SW,221,5.8,5.8,99,0.00,,,0.01,WeatherDisplay:10.37,2013-07-04 07:19:00,
2013-07-04 03:24:00,74.2,73.9,30.18,South,188,6.9,6.9,99,0.00,,,0.01,WeatherDisplay:10.37,2013-07-04 07:24:00,
2013-07-04 03:29:00,74.2,73.9,30.18,South,188,6.0,6.0,99,0.00,,,0.01,WeatherDisplay:10.37,2013-07-04 07:29:00,
2013-07-04 03:34:00,74.2,73.9,30.18,SSW,198,8.1,8.1,99,0.00,,,0.01,WeatherDisplay:10.37,2013-07-04 07:34:00,
2013-07-04 03:39:00,74.2,73.9,30.18,South,190,6.9,6.9,99,0.00,,,0.01,WeatherDisplay:10.37,2013-07-04 07:39:00,
2013-07-04 03:44:00,74.2,73.9,30.18,South,181,3.5,3.5,99,0.00,,,0.01,WeatherDisplay:10.37,2013-07-04 07:44:00,
2013-07-04 03:49:00,74.2,73.9,30.18,SSW,211,5.8,5.8,99,0.00,,,0.01,WeatherDisplay:10.37,2013-07-04 07:49:00,
2013-07-04 03:54:00,74.2,73.9,30.18,SSW,211,0.0,0.0,99,0.00,,,0.01,WeatherDisplay:10.37,2013-07-04 07:54:00,
2013-07-04 03:59:00,74.2,73.9,30.18,SSW,211,0.0,0.0,99,0.00,,,0.01,WeatherDisplay:10.37,2013-07-04 07:59:00,
2013-07-04 04:04:00,74.2,73.9,30.18,SSW,211,1.2,0.0,99,0.00,,,0.01,WeatherDisplay:10.37,2013-07-04 08:04:00,
2013-07-04 04:09:00,74.2,73.9,30.18,SSW,211,1.2,0.0,99,0.00,,,0.01,WeatherDisplay:10.37,2013-07-04 08:09:00,
2013-07-04 04:14:00,74.2,73.9,30.18,SSW,211,1.2,0.0,99,0.00,,,0.01,WeatherDisplay:10.37,2013-07-04 08:14:00,
2013-07-04 04:19:00,74.2,73.9,30.18,SSW,211,3.5,3.5,99,0.00,,,0.01,WeatherDisplay:10.37,2013-07-04 08:19:00,
2013-07-04 04:24:00,74.2,73.9,30.18,SSW,211,0.0,0.0,99,0.00,,,0.01,WeatherDisplay:10.37,2013-07-04 08:24:00,
2013-07-04 04:29:00,74.2,73.9,30.18,SSW,211,2.3,2.3,99,0.00,,,0.01,WeatherDisplay:10.37,2013-07-04 08:29:00,
2013-07-04 04:34:00,74.2,73.9,30.19,SSW,211,1.2,0.0,99,0.00,,,0.01,WeatherDisplay:10.37,2013-07-04 08:34:00,
2013-07-04 04:39:00,74.2,73.9,30.18,SSW,211,2.3,0.0,99,0.00,,,0.01,WeatherDisplay:10.37,2013-07-04 08:39:00,
2013-07-04 04:45:00,74.1,73.8,30.19,SSW,211,0.0,0.0,99,0.00,,,0.01,WeatherDisplay:10.37,2013-07-04 08:45:00,
2013-07-04 04:50:00,74.0,73.7,30.19,SSW,211,3.5,3.5,99,0.00,,,0.01,WeatherDisplay:10.37,2013-07-04 08:50:00,
2013-07-04 04:55:00,73.9,73.6,30.19,SSW,211,3.5,3.5,99,0.00,,,0.01,WeatherDisplay:10.37,2013-07-04 08:55:00,
2013-07-04 05:00:00,73.9,73.6,30.19,SSW,211,0.0,0.0,99,0.00,,,0.01,WeatherDisplay:10.37,2013-07-04 09:00:00,
2013-07-04 05:05:00,73.9,73.6,30.19,SSW,211,0.0,0.0,99,0.00,,,0.01,WeatherDisplay:10.37,2013-07-04 09:05:00,
2013-07-04 05:10:00,73.9,73.6,30.19,SSW,211,0.0,0.0,99,0.00,,,0.01,WeatherDisplay:10.37,2013-07-04 09:10:00,
2013-07-04 05:15:00,73.9,73.6,30.19,SSW,211,0.0,0.0,99,0.00,,,0.01,WeatherDisplay:10.37,2013-07-04 09:15:00,
2013-07-04 05:20:00,73.8,73.5,30.19,SSW,211,0.0,0.0,99,0.00,,,0.01,WeatherDisplay:10.37,2013-07-04 09:20:00,
2013-07-04 05:25:00,73.7,73.4,30.19,SSW,211,0.0,0.0,99,0.00,,,0.01,WeatherDisplay:10.37,2013-07-04 09:25:00,
2013-07-04 05:30:00,73.8,73.5,30.19,SSW,211,0.0,0.0,99,0.00,,,0.01,WeatherDisplay:10.37,2013-07-04 09:30:00,
2013-07-04 05:35:00,73.8,73.5,30.19,SSW,213,0.0,0.0,99,0.00,,,0.01,WeatherDisplay:10.37,2013-07-04 09:35:00,
2013-07-04 05:40:00,73.9,73.6,30.19,SSW,212,0.0,0.0,99,0.00,,,0.01,WeatherDisplay:10.37,2013-07-04 09:40:00,
2013-07-04 05:45:00,73.9,73.6,30.19,SSW,212,0.0,0.0,99,0.00,,,0.01,WeatherDisplay:10.37,2013-07-04 09:45:00,
2013-07-04 05:50:00,73.9,73.6,30.19,SSW,212,0.0,0.0,99,0.00,,,0.01,WeatherDisplay:10.37,2013-07-04 09:50:00,
2013-07-04 05:55:00,73.8,73.5,30.19,SSW,211,0.0,0.0,99,0.00,,,0.01,WeatherDisplay:10.37,2013-07-04 09:55:00,
2013-07-04 06:00:00,73.8,73.5,30.19,SSW,213,0.0,0.0,99,0.00,,,0.01,WeatherDisplay:10.37,2013-07-04 10:00:00,
2013-07-04 06:05:00,73.9,73.6,30.20,South,170,0.0,0.0,99,0.00,,,0.01,WeatherDisplay:10.37,2013-07-04 10:05:00,
2013-07-04 06:10:00,73.9,73.6,30.20,South,170,1.2,0.0,99,0.00,,,0.01,WeatherDisplay:10.37,2013-07-04 10:10:00,
2013-07-04 06:15:00,73.9,73.6,30.20,South,170,0.0,0.0,99,0.00,,,0.01,WeatherDisplay:10.37,2013-07-04 10:15:00,
2013-07-04 06:20:00,74.0,73.7,30.20,SSW,198,1.2,1.2,99,0.00,,,0.01,WeatherDisplay:10.37,2013-07-04 10:20:00,
2013-07-04 06:25:00,74.0,73.7,30.20,SSW,198,0.0,0.0,99,0.00,,,0.01,WeatherDisplay:10.37,2013-07-04 10:25:00,
2013-07-04 06:30:00,74.1,73.8,30.21,SSW,198,3.5,0.0,99,0.00,,,0.01,WeatherDisplay:10.37,2013-07-04 10:30:00,
2013-07-04 06:35:00,74.0,73.7,30.21,SSW,198,0.0,0.0,99,0.00,,,0.01,WeatherDisplay:10.37,2013-07-04 10:35:00,
2013-07-04 06:40:00,74.1,73.8,30.21,SSW,198,4.0,4.0,99,0.00,,,0.01,WeatherDisplay:10.37,2013-07-04 10:40:00,
2013-07-04 06:45:00,74.1,73.8,30.21,South,188,2.0,2.0,99,0.00,,,0.01,WeatherDisplay:10.37,2013-07-04 10:45:00,
2013-07-04 06:50:00,74.1,73.8,30.21,South,179,2.3,2.3,99,0.00,,,0.01,WeatherDisplay:10.37,2013-07-04 10:50:00,
2013-07-04 06:55:00,74.1,73.8,30.21,ESE,119,1.2,1.2,99,0.00,,,0.01,WeatherDisplay:10.37,2013-07-04 10:55:00,
2013-07-04 07:00:00,74.1,73.8,30.21,SE,134,6.0,6.0,99,0.00,,,0.01,WeatherDisplay:10.37,2013-07-04 11:00:00,
2013-07-04 07:05:00,74.0,73.7,30.21,SE,138,2.3,2.3,99,0.00,,,0.01,WeatherDisplay:10.37,2013-07-04 11:05:00,
2013-07-04 07:10:00,74.1,73.8,30.21,South,179,4.0,4.0,99,0.00,,,0.01,WeatherDisplay:10.37,2013-07-04 11:10:00,
2013-07-04 07:15:00,74.2,73.9,30.21,South,179,1.2,0.0,99,0.00,,,0.01,WeatherDisplay:10.37,2013-07-04 11:15:00,
2013-07-04 07:20:00,74.3,74.0,30.22,SW,215,3.5,3.5,99,0.00,,,0.01,WeatherDisplay:10.37,2013-07-04 11:20:00,
2013-07-04 07:25:00,74.3,74.0,30.22,SE,146,4.6,4.6,99,0.00,,,0.01,WeatherDisplay:10.37,2013-07-04 11:25:00,
2013-07-04 07:30:00,74.4,74.1,30.22,SE,145,6.0,6.0,99,0.00,,,0.01,WeatherDisplay:10.37,2013-07-04 11:30:00,
2013-07-04 07:35:00,74.4,74.1,30.22,South,175,7.0,7.0,99,0.00,,,0.01,WeatherDisplay:10.37,2013-07-04 11:35:00,
2013-07-04 07:40:00,74.5,74.2,30.22,South,175,3.0,3.0,99,0.00,,,0.01,WeatherDisplay:10.37,2013-07-04 11:40:00,
2013-07-04 07:45:00,74.6,74.3,30.22,South,175,5.0,5.0,99,0.00,,,0.01,WeatherDisplay:10.37,2013-07-04 11:45:00,
2013-07-04 07:50:00,74.8,74.5,30.22,South,176,5.0,5.0,99,0.00,,,0.01,WeatherDisplay:10.37,2013-07-04 11:50:00,
2013-07-04 07:55:00,75.0,74.7,30.22,South,182,9.2,9.2,99,0.00,,,0.01,WeatherDisplay:10.37,2013-07-04 11:55:00,
2013-07-04 08:00:00,75.1,74.8,30.22,South,179,7.0,7.0,99,0.00,,,0.01,WeatherDisplay:10.37,2013-07-04 12:00:00,
2013-07-04 08:05:00,75.1,74.8,30.23,SSW,200,5.8,5.8,99,0.00,,,0.01,WeatherDisplay:10.37,2013-07-04 12:05:00,
2013-07-04 08:10:00,75.3,75.0,30.23,SSW,204,6.9,6.9,99,0.00,,,0.01,WeatherDisplay:10.37,2013-07-04 12:10:00,
2013-07-04 08:15:00,75.2,74.9,30.23,SSE,168,1.2,1.2,99,0.00,,,0.01,WeatherDisplay:10.37,2013-07-04 12:15:00,
2013-07-04 08:20:00,75.5,75.2,30.23,SSW,202,8.1,8.1,99,0.00,,,0.01,WeatherDisplay:10.37,2013-07-04 12:20:00,
2013-07-04 08:25:00,75.5,75.2,30.23,SE,144,4.0,4.0,99,0.00,,,0.01,WeatherDisplay:10.37,2013-07-04 12:25:00,
2013-07-04 08:30:00,75.9,75.6,30.23,SSW,198,9.0,9.0,99,0.00,,,0.01,WeatherDisplay:10.37,2013-07-04 12:30:00,
2013-07-04 08:35:00,76.3,76.0,30.23,SSE,157,7.0,7.0,99,0.00,,,0.01,WeatherDisplay:10.37,2013-07-04 12:35:00,
2013-07-04 08:40:00,76.4,76.1,30.23,SSW,213,3.5,3.5,99,0.00,,,0.01,WeatherDisplay:10.37,2013-07-04 12:40:00,
2013-07-04 08:45:00,76.3,75.7,30.23,South,179,1.2,0.0,98,0.00,,,0.01,WeatherDisplay:10.37,2013-07-04 12:45:00,
2013-07-04 08:50:00,76.2,75.6,30.23,SSW,202,3.5,3.5,98,0.00,,,0.01,WeatherDisplay:10.37,2013-07-04 12:50:00,
2013-07-04 08:55:00,76.5,75.9,30.23,South,185,6.0,6.0,98,0.00,,,0.01,WeatherDisplay:10.37,2013-07-04 12:55:00,
2013-07-04 09:00:00,76.7,76.1,30.23,South,185,2.0,2.0,98,0.00,,,0.01,WeatherDisplay:10.37,2013-07-04 13:00:00,
2013-07-04 09:05:00,77.1,75.9,30.23,SE,142,2.3,2.3,96,0.00,,,0.01,WeatherDisplay:10.37,2013-07-04 13:05:00,
2013-07-04 09:10:00,77.3,76.1,30.23,SE,144,1.2,1.2,96,0.00,,,0.01,WeatherDisplay:10.37,2013-07-04 13:10:00,
2013-07-04 09:15:00,77.6,76.1,30.23,SW,223,5.0,5.0,95,0.00,,,0.01,WeatherDisplay:10.37,2013-07-04 13:15:00,
2013-07-04 09:20:00,77.7,75.8,30.23,SSW,194,6.9,6.9,94,0.00,,,0.01,WeatherDisplay:10.37,2013-07-04 13:20:00,
2013-07-04 09:25:00,78.0,75.8,30.23,SSW,194,6.9,6.9,93,0.00,,,0.01,WeatherDisplay:10.37,2013-07-04 13:25:00,
2013-07-04 09:30:00,78.9,76.7,30.22,SE,125,6.9,6.9,93,0.00,,,0.01,WeatherDisplay:10.37,2013-07-04 13:30:00,
2013-07-04 09:35:00,79.4,75.9,30.23,SSE,155,11.5,11.5,89,0.00,,,0.01,WeatherDisplay:10.37,2013-07-04 13:35:00,
2013-07-04 09:40:00,79.7,76.2,30.23,South,184,5.8,5.8,89,0.00,,,0.01,WeatherDisplay:10.37,2013-07-04 13:40:00,
2013-07-04 09:45:00,80.1,76.6,30.22,SSE,149,7.0,7.0,89,0.00,,,0.01,WeatherDisplay:10.37,2013-07-04 13:45:00,
2013-07-04 09:51:00,80.1,75.9,30.22,SE,135,10.4,10.4,87,0.00,,,0.01,WeatherDisplay:10.37,2013-07-04 13:51:00,
2013-07-04 09:56:00,80.6,76.4,30.22,SSW,209,6.0,6.0,87,0.00,,,0.01,WeatherDisplay:10.37,2013-07-04 13:56:00,
2013-07-04 10:01:00,79.8,75.2,30.22,SSW,196,8.1,8.1,86,0.00,,,0.01,WeatherDisplay:10.37,2013-07-04 14:01:00,
2013-07-04 10:06:00,79.7,75.5,30.22,South,190,9.2,9.2,87,0.00,,,0.01,WeatherDisplay:10.37,2013-07-04 14:06:00,
2013-07-04 10:11:00,79.0,75.1,30.22,SSW,205,5.0,5.0,88,0.00,,,0.01,WeatherDisplay:10.37,2013-07-04 14:11:00,
2013-07-04 10:16:00,79.0,75.5,30.22,SSW,207,3.5,3.5,89,0.00,,,0.01,WeatherDisplay:10.37,2013-07-04 14:16:00,
2013-07-04 10:21:00,79.7,75.8,30.22,South,184,10.4,10.4,88,0.00,,,0.01,WeatherDisplay:10.37,2013-07-04 14:21:00,
2013-07-04 10:26:00,80.1,75.2,30.22,SSW,211,11.5,11.5,85,0.00,,,0.01,WeatherDisplay:10.37,2013-07-04 14:26:00,
2013-07-04 10:31:00,80.6,75.7,30.22,SW,236,9.0,9.0,85,0.00,,,0.01,WeatherDisplay:10.37,2013-07-04 14:31:00,
2013-07-04 10:36:00,81.3,76.7,30.22,SSW,209,5.8,5.8,86,0.00,,,0.01,WeatherDisplay:10.37,2013-07-04 14:36:00,
2013-07-04 10:41:00,81.2,75.9,30.22,South,176,8.1,8.1,84,0.00,,,0.01,WeatherDisplay:10.37,2013-07-04 14:41:00,
2013-07-04 10:46:00,81.1,76.2,30.22,South,184,8.1,8.1,85,0.00,,,0.01,WeatherDisplay:10.37,2013-07-04 14:46:00,
2013-07-04 10:51:00,81.9,76.6,30.22,SSW,205,5.0,5.0,84,0.00,,,0.01,WeatherDisplay:10.37,2013-07-04 14:51:00,
2013-07-04 10:56:00,82.5,76.4,30.21,SSW,210,6.9,6.9,82,0.00,,,0.01,WeatherDisplay:10.37,2013-07-04 14:56:00,
2013-07-04 11:01:00,82.8,75.6,30.21,SSE,154,9.0,9.0,79,0.00,,,0.01,WeatherDisplay:10.37,2013-07-04 15:01:00,
2013-07-04 11:06:00,82.2,75.4,30.21,SSW,195,10.4,10.4,80,0.00,,,0.01,WeatherDisplay:10.37,2013-07-04 15:06:00,
2013-07-04 11:11:00,82.8,75.6,30.21,South,184,11.5,11.5,79,0.00,,,0.01,WeatherDisplay:10.37,2013-07-04 15:11:00,
2013-07-04 11:16:00,82.6,75.4,30.21,SSE,161,9.2,9.2,79,0.00,,,0.01,WeatherDisplay:10.37,2013-07-04 15:16:00,
2013-07-04 11:21:00,83.0,76.2,30.21,SSW,210,6.9,6.9,80,0.00,,,0.01,WeatherDisplay:10.37,2013-07-04 15:21:00,
2013-07-04 11:26:00,82.9,75.3,30.21,SW,225,6.0,6.0,78,0.00,,,0.01,WeatherDisplay:10.37,2013-07-04 15:26:00,
2013-07-04 11:31:00,82.0,74.8,30.21,SSW,206,10.4,10.4,79,0.00,,,0.01,WeatherDisplay:10.37,2013-07-04 15:31:00,
2013-07-04 11:36:00,82.2,75.8,30.21,SSW,207,7.0,7.0,81,0.00,,,0.01,WeatherDisplay:10.37,2013-07-04 15:36:00,
2013-07-04 11:41:00,82.7,75.9,30.21,South,186,6.9,6.9,80,0.00,,,0.01,WeatherDisplay:10.37,2013-07-04 15:41:00,
2013-07-04 11:46:00,82.5,75.3,30.21,South,183,6.9,6.9,79,0.00,,,0.01,WeatherDisplay:10.37,2013-07-04 15:46:00,
2013-07-04 11:51:00,83.2,76.0,30.21,SW,215,11.5,11.5,79,0.00,,,0.01,WeatherDisplay:10.37,2013-07-04 15:51:00,
2013-07-04 11:56:00,83.7,75.7,30.21,South,180,8.1,8.1,77,0.00,,,0.01,WeatherDisplay:10.37,2013-07-04 15:56:00,
2013-07-04 12:01:00,83.9,75.9,30.21,ESE,120,8.1,8.1,77,0.00,,,0.01,WeatherDisplay:10.37,2013-07-04 16:01:00,
2013-07-04 12:06:00,84.3,76.7,30.21,SSE,151,4.0,4.0,78,0.00,,,0.01,WeatherDisplay:10.37,2013-07-04 16:06:00,
2013-07-04 12:11:00,84.7,76.3,30.21,SSE,167,8.1,8.1,76,0.00,,,0.01,WeatherDisplay:10.37,2013-07-04 16:11:00,
2013-07-04 12:16:00,84.5,74.9,30.21,SSW,206,11.5,11.5,73,0.00,,,0.01,WeatherDisplay:10.37,2013-07-04 16:16:00,
2013-07-04 12:21:00,85.0,76.6,30.21,SW,217,6.9,6.9,76,0.00,,,0.01,WeatherDisplay:10.37,2013-07-04 16:21:00,
2013-07-04 12:26:00,84.3,75.9,30.21,SSW,200,5.0,5.0,76,0.00,,,0.01,WeatherDisplay:10.37,2013-07-04 16:26:00,
2013-07-04 12:31:00,83.6,75.2,30.21,South,183,4.6,4.6,76,0.00,,,0.01,WeatherDisplay:10.37,2013-07-04 16:31:00,
2013-07-04 12:36:00,82.9,74.9,30.21,South,187,4.6,4.6,77,0.00,,,0.01,WeatherDisplay:10.37,2013-07-04 16:36:00,
2013-07-04 12:41:00,83.0,75.8,30.21,SE,127,4.6,4.6,79,0.00,,,0.01,WeatherDisplay:10.37,2013-07-04 16:41:00,
2013-07-04 12:42:00,83.4,75.8,30.21,SW,215,7.0,7.0,78,0.00,,,0.01,WeatherDisplay:10.37,2013-07-04 16:42:00,
2013-07-04 12:47:00,84.3,74.7,30.20,South,185,9.2,9.2,73,0.00,,,0.01,WeatherDisplay:10.37,2013-07-04 16:47:00,
2013-07-04 12:53:00,84.7,75.9,30.20,SSW,200,11.5,11.5,75,0.00,,,0.01,WeatherDisplay:10.37,2013-07-04 16:53:00,
2013-07-04 12:58:00,85.2,75.6,30.20,SE,128,9.2,9.2,73,0.00,,,0.01,WeatherDisplay:10.37,2013-07-04 16:58:00,
2013-07-04 13:03:00,85.3,75.7,30.20,SE,129,7.0,7.0,73,0.00,,,0.01,WeatherDisplay:10.37,2013-07-04 17:03:00,
2013-07-04 13:08:00,85.5,75.0,30.20,SE,146,10.4,10.4,71,0.00,,,0.01,WeatherDisplay:10.37,2013-07-04 17:08:00,
2013-07-04 13:13:00,85.9,75.4,30.20,SE,132,5.0,5.0,71,0.00,,,0.01,WeatherDisplay:10.37,2013-07-04 17:13:00,
2013-07-04 13:18:00,86.3,76.2,30.20,SE,141,12.7,12.7,72,0.00,,,0.01,WeatherDisplay:10.37,2013-07-04 17:18:00,
2013-07-04 13:23:00,85.5,75.4,30.19,South,173,6.0,6.0,72,0.00,,,0.01,WeatherDisplay:10.37,2013-07-04 17:23:00,
2013-07-04 13:28:00,85.6,75.9,30.19,SSE,159,10.0,10.0,73,0.00,,,0.01,WeatherDisplay:10.37,2013-07-04 17:28:00,
2013-07-04 13:33:00,85.7,75.6,30.19,SE,136,7.0,7.0,72,0.00,,,0.01,WeatherDisplay:10.37,2013-07-04 17:33:00,
2013-07-04 13:38:00,85.6,75.5,30.19,SE,132,5.0,5.0,72,0.00,,,0.01,WeatherDisplay:10.37,2013-07-04 17:38:00,
2013-07-04 13:43:00,85.4,74.5,30.19,SE,136,6.9,6.9,70,0.00,,,0.01,WeatherDisplay:10.37,2013-07-04 17:43:00,
2013-07-04 13:48:00,85.4,75.3,30.19,SE,132,10.4,10.4,72,0.00,,,0.01,WeatherDisplay:10.37,2013-07-04 17:48:00,
2013-07-04 13:53:00,86.0,75.5,30.19,SSW,198,9.2,9.2,71,0.00,,,0.01,WeatherDisplay:10.37,2013-07-04 17:53:00,
2013-07-04 13:58:00,86.4,74.1,30.18,SSW,207,7.0,7.0,67,0.00,,,0.01,WeatherDisplay:10.37,2013-07-04 17:58:00,
2013-07-04 14:03:00,87.1,76.1,30.18,SE,141,9.2,9.2,70,0.00,,,0.01,WeatherDisplay:10.37,2013-07-04 18:03:00,
2013-07-04 14:08:00,86.2,74.8,30.18,ESE,107,10.4,10.4,69,0.00,,,0.01,WeatherDisplay:10.37,2013-07-04 18:08:00,
2013-07-04 14:13:00,86.0,74.6,30.18,SSE,152,4.6,4.6,69,0.00,,,0.01,WeatherDisplay:10.37,2013-07-04 18:13:00,
2013-07-04 14:18:00,85.7,74.4,30.18,SSE,155,11.5,11.5,69,0.00,,,0.01,WeatherDisplay:10.37,2013-07-04 18:18:00,
2013-07-04 14:23:00,85.9,75.0,30.18,ESE,118,11.5,11.5,70,0.00,,,0.01,WeatherDisplay:10.37,2013-07-04 18:23:00,
2013-07-04 14:28:00,86.6,75.2,30.18,SSW,194,6.9,6.9,69,0.00,,,0.01,WeatherDisplay:10.37,2013-07-04 18:28:00,
2013-07-04 14:33:00,85.7,74.4,30.18,SE,144,8.1,8.1,69,0.00,,,0.01,WeatherDisplay:10.37,2013-07-04 18:33:00,
2013-07-04 14:38:00,86.4,75.9,30.17,SW,217,12.0,12.0,71,0.00,,,0.01,WeatherDisplay:10.37,2013-07-04 18:38:00,
2013-07-04 14:43:00,86.9,74.6,30.17,SW,219,11.5,11.5,67,0.00,,,0.01,WeatherDisplay:10.37,2013-07-04 18:43:00,
2013-07-04 14:48:00,86.6,73.4,30.17,ESE,120,13.8,13.8,65,0.00,,,0.01,WeatherDisplay:10.37,2013-07-04 18:48:00,
2013-07-04 14:53:00,86.3,73.6,30.17,SSE,155,13.8,13.8,66,0.00,,,0.01,WeatherDisplay:10.37,2013-07-04 18:53:00,
2013-07-04 14:58:00,86.6,73.4,30.17,SE,126,10.0,10.0,65,0.00,,,0.01,WeatherDisplay:10.37,2013-07-04 18:58:00,
2013-07-04 15:03:00,87.0,75.2,30.17,SSE,147,6.0,6.0,68,0.00,,,0.01,WeatherDisplay:10.37,2013-07-04 19:03:00,
2013-07-04 15:08:00,87.3,73.6,30.16,SE,145,11.5,11.5,64,0.00,,,0.01,WeatherDisplay:10.37,2013-07-04 19:08:00,
2013-07-04 15:13:00,87.0,71.4,30.16,SSE,156,11.5,11.5,60,0.00,,,0.01,WeatherDisplay:10.37,2013-07-04 19:13:00,
2013-07-04 15:18:00,87.3,73.2,30.16,SSE,162,4.0,4.0,63,0.00,,,0.01,WeatherDisplay:10.37,2013-07-04 19:18:00,
2013-07-04 15:23:00,87.6,73.0,30.15,SSE,159,5.8,5.8,62,0.00,,,0.01,WeatherDisplay:10.37,2013-07-04 19:23:00,
2013-07-04 15:28:00,87.8,74.1,30.15,SW,221,6.9,6.9,64,0.00,,,0.01,WeatherDisplay:10.37,2013-07-04 19:28:00,
2013-07-04 15:33:00,87.6,72.0,30.15,ESE,105,11.5,11.5,60,0.00,,,0.01,WeatherDisplay:10.37,2013-07-04 19:33:00,
2013-07-04 15:38:00,87.3,71.2,30.15,SE,125,9.2,9.2,59,0.00,,,0.01,WeatherDisplay:10.37,2013-07-04 19:38:00,
2013-07-04 15:43:00,87.2,73.5,30.15,SSW,197,10.0,10.0,64,0.00,,,0.01,WeatherDisplay:10.37,2013-07-04 19:43:00,
2013-07-04 15:48:00,87.4,71.8,30.15,South,173,9.0,9.0,60,0.00,,,0.01,WeatherDisplay:10.37,2013-07-04 19:48:00,
2013-07-04 15:54:00,87.5,71.9,30.15,SSW,203,9.0,9.0,60,0.00,,,0.01,WeatherDisplay:10.37,2013-07-04 19:54:00,
2013-07-04 15:59:00,87.7,73.5,30.15,ESE,120,10.4,10.4,63,0.00,,,0.01,WeatherDisplay:10.37,2013-07-04 19:59:00,
2013-07-04 16:04:00,87.3,73.2,30.15,ESE,119,6.9,6.9,63,0.00,,,0.01,WeatherDisplay:10.37,2013-07-04 20:04:00,
2013-07-04 16:09:00,87.1,73.0,30.15,SSE,153,10.4,10.4,63,0.00,,,0.01,WeatherDisplay:10.37,2013-07-04 20:09:00,
2013-07-04 16:14:00,87.2,73.5,30.15,ESE,105,11.5,11.5,64,0.00,,,0.01,WeatherDisplay:10.37,2013-07-04 20:14:00,
2013-07-04 16:19:00,87.5,74.7,30.15,ESE,103,5.8,5.8,66,0.00,,,0.01,WeatherDisplay:10.37,2013-07-04 20:19:00,
2013-07-04 16:24:00,87.8,74.6,30.15,SW,220,12.0,12.0,65,0.00,,,0.01,WeatherDisplay:10.37,2013-07-04 20:24:00,
2013-07-04 16:29:00,87.8,74.1,30.15,SE,125,6.0,6.0,64,0.00,,,0.01,WeatherDisplay:10.37,2013-07-04 20:29:00,
2013-07-04 16:34:00,87.8,75.0,30.14,SSE,160,3.0,3.0,66,0.00,,,0.01,WeatherDisplay:10.37,2013-07-04 20:34:00,
2013-07-04 16:39:00,87.5,73.3,30.14,SE,138,5.8,5.8,63,0.00,,,0.01,WeatherDisplay:10.37,2013-07-04 20:39:00,
2013-07-04 16:44:00,87.6,74.4,30.14,SE,138,6.9,6.9,65,0.00,,,0.01,WeatherDisplay:10.37,2013-07-04 20:44:00,
2013-07-04 16:49:00,87.9,75.1,30.14,SE,124,9.2,9.2,66,0.00,,,0.01,WeatherDisplay:10.37,2013-07-04 20:49:00,
2013-07-04 16:55:00,87.0,74.7,30.14,East,95,7.0,7.0,67,0.00,,,0.01,WeatherDisplay:10.37,2013-07-04 20:55:00,
2013-07-04 17:00:00,86.9,75.5,30.14,SE,134,6.0,6.0,69,0.00,,,0.01,WeatherDisplay:10.37,2013-07-04 21:00:00,
2013-07-04 17:05:00,86.0,75.5,30.14,East,98,8.0,8.0,71,0.00,,,0.01,WeatherDisplay:10.37,2013-07-04 21:05:00,
2013-07-04 17:10:00,85.6,75.5,30.14,SSE,155,10.0,10.0,72,0.00,,,0.01,WeatherDisplay:10.37,2013-07-04 21:10:00,
2013-07-04 17:15:00,85.7,75.6,30.14,ESE,119,14.0,14.0,72,0.00,,,0.01,WeatherDisplay:10.37,2013-07-04 21:15:00,
2013-07-04 17:20:00,85.2,74.7,30.14,SE,128,9.2,9.2,71,0.00,,,0.01,WeatherDisplay:10.37,2013-07-04 21:20:00,
2013-07-04 17:25:00,85.0,73.7,30.14,ESE,107,12.0,12.0,69,0.00,,,0.01,WeatherDisplay:10.37,2013-07-04 21:25:00,
2013-07-04 17:30:00,84.9,74.0,30.14,ESE,117,8.0,8.0,70,0.00,,,0.01,WeatherDisplay:10.37,2013-07-04 21:30:00,
2013-07-04 17:35:00,85.0,74.5,30.14,SE,132,7.0,7.0,71,0.00,,,0.01,WeatherDisplay:10.37,2013-07-04 21:35:00,
2013-07-04 17:40:00,85.0,74.5,30.14,SSW,207,10.4,10.4,71,0.00,,,0.01,WeatherDisplay:10.37,2013-07-04 21:40:00,
2013-07-04 17:45:00,85.0,74.5,30.14,ESE,122,5.8,5.8,71,0.00,,,0.01,WeatherDisplay:10.37,2013-07-04 21:45:00,
2013-07-04 17:50:00,85.1,75.1,30.14,SW,221,9.2,9.2,72,0.00,,,0.01,WeatherDisplay:10.37,2013-07-04 21:50:00,
2013-07-04 17:55:00,85.0,75.0,30.14,SE,126,10.4,10.4,72,0.00,,,0.01,WeatherDisplay:10.37,2013-07-04 21:55:00,
2013-07-04 18:00:00,84.8,74.8,30.14,East,85,10.0,10.0,72,0.00,,,0.01,WeatherDisplay:10.37,2013-07-04 22:00:00,
2013-07-04 18:05:00,84.6,74.2,30.13,ESE,113,11.5,11.5,71,0.00,,,0.01,WeatherDisplay:10.37,2013-07-04 22:05:00,
2013-07-04 18:11:00,84.3,74.3,30.13,SE,126,8.1,8.1,72,0.00,,,0.01,WeatherDisplay:10.37,2013-07-04 22:11:00,
2013-07-04 18:16:00,84.0,75.6,30.13,SE,126,6.0,6.0,76,0.00,,,0.01,WeatherDisplay:10.37,2013-07-04 22:16:00,
2013-07-04 18:21:00,83.8,75.4,30.13,ESE,105,3.5,3.5,76,0.00,,,0.01,WeatherDisplay:10.37,2013-07-04 22:21:00,
2013-07-04 18:26:00,83.5,75.1,30.13,ESE,110,4.6,4.6,76,0.00,,,0.01,WeatherDisplay:10.37,2013-07-04 22:26:00,
2013-07-04 18:31:00,83.1,75.1,30.14,South,175,10.4,10.4,77,0.00,,,0.01,WeatherDisplay:10.37,2013-07-04 22:31:00,
2013-07-04 18:36:00,82.6,74.7,30.14,SE,139,6.9,6.9,77,0.00,,,0.01,WeatherDisplay:10.37,2013-07-04 22:36:00,
2013-07-04 18:41:00,82.5,75.3,30.14,SE,136,4.0,4.0,79,0.00,,,0.01,WeatherDisplay:10.37,2013-07-04 22:41:00,
2013-07-04 18:46:00,82.5,75.3,30.14,SE,137,3.5,3.5,79,0.00,,,0.01,WeatherDisplay:10.37,2013-07-04 22:46:00,
2013-07-04 18:51:00,82.4,75.6,30.14,SE,126,3.5,3.5,80,0.00,,,0.01,WeatherDisplay:10.37,2013-07-04 22:51:00,
2013-07-04 18:56:00,82.2,75.4,30.14,SE,133,6.9,6.9,80,0.00,,,0.01,WeatherDisplay:10.37,2013-07-04 22:56:00,
2013-07-04 19:01:00,82.2,75.8,30.14,SSW,195,3.5,3.5,81,0.00,,,0.01,WeatherDisplay:10.37,2013-07-04 23:01:00,
2013-07-04 19:06:00,82.2,75.8,30.14,ESE,123,3.0,3.0,81,0.00,,,0.01,WeatherDisplay:10.37,2013-07-04 23:06:00,
2013-07-04 19:11:00,81.8,75.8,30.14,SSE,153,3.5,3.5,82,0.00,,,0.01,WeatherDisplay:10.37,2013-07-04 23:11:00,
2013-07-04 19:16:00,81.7,75.7,30.14,ESE,113,3.5,3.5,82,0.00,,,0.01,WeatherDisplay:10.37,2013-07-04 23:16:00,
2013-07-04 19:21:00,81.4,76.1,30.14,SE,134,4.6,4.6,84,0.00,,,0.01,WeatherDisplay:10.37,2013-07-04 23:21:00,
2013-07-04 19:26:00,81.4,76.1,30.15,ESE,102,5.0,5.0,84,0.00,,,0.01,WeatherDisplay:10.37,2013-07-04 23:26:00,
2013-07-04 19:31:00,81.4,76.5,30.15,SE,136,0.0,0.1,85,0.00,,,0.01,WeatherDisplay:10.37,2013-07-04 23:31:00,
2013-07-04 19:36:00,81.4,76.5,30.15,SE,136,3.5,3.5,85,0.00,,,0.01,WeatherDisplay:10.37,2013-07-04 23:36:00,
2013-07-04 19:41:00,81.3,76.4,30.14,SE,140,4.0,4.0,85,0.00,,,0.01,WeatherDisplay:10.37,2013-07-04 23:41:00,
2013-07-04 19:46:00,81.1,76.2,30.15,SE,138,5.0,5.0,85,0.00,,,0.01,WeatherDisplay:10.37,2013-07-04 23:46:00,
2013-07-04 19:51:00,81.0,76.1,30.15,SE,138,4.6,4.6,85,0.00,,,0.01,WeatherDisplay:10.37,2013-07-04 23:51:00,
2013-07-04 19:56:00,80.8,75.9,30.15,SE,136,3.5,3.5,85,0.00,,,0.01,WeatherDisplay:10.37,2013-07-04 23:56:00,
2013-07-04 20:01:00,80.6,75.7,30.15,SE,133,6.0,6.0,85,0.00,,,0.01,WeatherDisplay:10.37,2013-07-05 00:01:00,
2013-07-04 20:06:00,80.5,75.6,30.15,SE,133,5.0,5.0,85,0.00,,,0.01,WeatherDisplay:10.37,2013-07-05 00:06:00,
2013-07-04 20:11:00,80.3,75.4,30.16,SE,134,3.5,3.5,85,0.00,,,0.01,WeatherDisplay:10.37,2013-07-05 00:11:00,
2013-07-04 20:16:00,80.0,75.4,30.16,SE,134,0.0,0.0,86,0.00,,,0.01,WeatherDisplay:10.37,2013-07-05 00:16:00,
2013-07-04 20:21:00,79.9,75.3,30.16,South,188,2.3,2.3,86,0.00,,,0.01,WeatherDisplay:10.37,2013-07-05 00:21:00,
2013-07-04 20:26:00,79.6,75.0,30.16,South,186,0.0,0.0,86,0.00,,,0.01,WeatherDisplay:10.37,2013-07-05 00:26:00,
2013-07-04 20:31:00,79.4,75.2,30.16,South,186,3.5,3.5,87,0.00,,,0.01,WeatherDisplay:10.37,2013-07-05 00:31:00,
2013-07-04 20:36:00,79.3,75.1,30.16,South,186,0.0,0.0,87,0.00,,,0.01,WeatherDisplay:10.37,2013-07-05 00:36:00,
2013-07-04 20:41:00,79.0,75.1,30.16,South,186,1.2,0.0,88,0.00,,,0.01,WeatherDisplay:10.37,2013-07-05 00:41:00,
2013-07-04 20:46:00,78.6,74.7,30.16,South,186,0.0,0.0,88,0.00,,,0.01,WeatherDisplay:10.37,2013-07-05 00:46:00,
2013-07-04 20:51:00,78.4,74.9,30.16,South,186,0.0,0.0,89,0.00,,,0.01,WeatherDisplay:10.37,2013-07-05 00:51:00,
2013-07-04 20:57:00,78.3,74.8,30.16,South,186,1.2,1.2,89,0.00,,,0.01,WeatherDisplay:10.37,2013-07-05 00:57:00,
2013-07-04 21:02:00,78.2,74.7,30.16,South,184,5.0,5.0,89,0.00,,,0.01,WeatherDisplay:10.37,2013-07-05 01:02:00,
2013-07-04 21:07:00,78.1,74.6,30.17,South,185,2.0,2.0,89,0.00,,,0.01,WeatherDisplay:10.37,2013-07-05 01:07:00,
2013-07-04 21:12:00,77.8,74.3,30.17,South,185,2.3,2.3,89,0.00,,,0.01,WeatherDisplay:10.37,2013-07-05 01:12:00,
2013-07-04 21:17:00,77.7,74.9,30.17,South,184,0.0,0.0,91,0.00,,,0.01,WeatherDisplay:10.37,2013-07-05 01:17:00,
2013-07-04 21:22:00,77.4,74.6,30.17,South,185,1.2,0.0,91,0.00,,,0.01,WeatherDisplay:10.37,2013-07-05 01:22:00,
2013-07-04 21:27:00,77.3,74.8,30.17,South,185,1.2,1.2,92,0.00,,,0.01,WeatherDisplay:10.37,2013-07-05 01:27:00,
2013-07-04 21:32:00,77.2,74.7,30.17,South,184,3.5,3.5,92,0.00,,,0.01,WeatherDisplay:10.37,2013-07-05 01:32:00,
2013-07-04 21:37:00,77.1,74.6,30.17,South,184,0.0,0.0,92,0.00,,,0.01,WeatherDisplay:10.37,2013-07-05 01:37:00,
2013-07-04 21:42:00,77.1,74.6,30.18,South,184,3.5,3.5,92,0.00,,,0.01,WeatherDisplay:10.37,2013-07-05 01:42:00,
2013-07-04 21:47:00,77.0,74.2,30.18,South,184,1.2,0.0,91,0.00,,,0.01,WeatherDisplay:10.37,2013-07-05 01:47:00,
2013-07-04 21:52:00,76.7,73.9,30.18,South,184,0.0,0.0,91,0.00,,,0.01,WeatherDisplay:10.37,2013-07-05 01:52:00,
2013-07-04 21:57:00,76.6,74.1,30.18,South,184,2.3,0.0,92,0.00,,,0.01,WeatherDisplay:10.37,2013-07-05 01:57:00,
2013-07-04 22:02:00,76.5,74.0,30.18,South,184,3.5,3.5,92,0.00,,,0.01,WeatherDisplay:10.37,2013-07-05 02:02:00,
2013-07-04 22:07:00,76.4,73.9,30.18,South,184,0.0,0.0,92,0.00,,,0.01,WeatherDisplay:10.37,2013-07-05 02:07:00,
2013-07-04 22:12:00,76.3,73.8,30.18,South,184,0.0,0.0,92,0.00,,,0.01,WeatherDisplay:10.37,2013-07-05 02:12:00,
2013-07-04 22:17:00,76.1,73.6,30.18,South,184,1.2,0.0,92,0.00,,,0.01,WeatherDisplay:10.37,2013-07-05 02:17:00,
2013-07-04 22:22:00,76.0,73.5,30.19,South,184,1.0,1.0,92,0.00,,,0.01,WeatherDisplay:10.37,2013-07-05 02:22:00,
2013-07-04 22:28:00,75.9,73.4,30.19,South,184,3.5,3.5,92,0.00,,,0.01,WeatherDisplay:10.37,2013-07-05 02:28:00,
2013-07-04 22:33:00,75.9,73.4,30.19,South,184,0.0,0.0,92,0.00,,,0.01,WeatherDisplay:10.37,2013-07-05 02:33:00,
2013-07-04 22:38:00,75.6,73.1,30.19,South,184,2.3,2.3,92,0.00,,,0.01,WeatherDisplay:10.37,2013-07-05 02:38:00,
2013-07-04 22:43:00,75.5,73.0,30.19,South,184,3.5,3.5,92,0.00,,,0.01,WeatherDisplay:10.37,2013-07-05 02:43:00,
2013-07-04 22:48:00,75.6,73.1,30.19,South,184,0.0,0.0,92,0.00,,,0.01,WeatherDisplay:10.37,2013-07-05 02:48:00,
2013-07-04 22:53:00,75.5,72.7,30.19,South,184,0.0,0.0,91,0.00,,,0.01,WeatherDisplay:10.37,2013-07-05 02:53:00,
2013-07-04 22:58:00,75.4,72.6,30.19,South,187,3.0,3.0,91,0.00,,,0.01,WeatherDisplay:10.37,2013-07-05 02:58:00,
2013-07-04 23:03:00,75.3,72.5,30.19,South,187,1.0,0.0,91,0.00,,,0.01,WeatherDisplay:10.37,2013-07-05 03:03:00,
2013-07-04 23:08:00,75.2,72.4,30.19,South,187,0.0,0.0,91,0.00,,,0.01,WeatherDisplay:10.37,2013-07-05 03:08:00,
2013-07-04 23:13:00,75.1,72.3,30.19,South,184,1.0,0.0,91,0.00,,,0.01,WeatherDisplay:10.37,2013-07-05 03:13:00,
2013-07-04 23:18:00,75.0,72.2,30.19,South,184,3.5,3.5,91,0.00,,,0.01,WeatherDisplay:10.37,2013-07-05 03:18:00,
2013-07-04 23:23:00,74.9,72.1,30.19,South,183,1.2,0.0,91,0.00,,,0.01,WeatherDisplay:10.37,2013-07-05 03:23:00,
2013-07-04 23:28:00,74.8,72.0,30.19,South,184,0.0,0.0,91,0.00,,,0.01,WeatherDisplay:10.37,2013-07-05 03:28:00,
2013-07-04 23:33:00,74.6,71.8,30.19,South,184,0.0,0.0,91,0.00,,,0.01,WeatherDisplay:10.37,2013-07-05 03:33:00,
2013-07-04 23:38:00,74.4,71.9,30.19,South,184,0.0,0.0,92,0.00,,,0.01,WeatherDisplay:10.37,2013-07-05 03:38:00,
2013-07-04 23:43:00,74.2,71.7,30.19,South,180,3.5,3.5,92,0.00,,,0.01,WeatherDisplay:10.37,2013-07-05 03:43:00,
2013-07-04 23:48:00,74.2,71.7,30.19,South,179,1.2,1.2,92,0.00,,,0.01,WeatherDisplay:10.37,2013-07-05 03:48:00,
2013-07-04 23:53:00,74.2,71.7,30.20,South,180,0.0,0.0,92,0.00,,,0.01,WeatherDisplay:10.37,2013-07-05 03:53:00,
2013-07-04 23:58:00,74.2,71.7,30.20,South,179,3.0,3.0,92,0.00,,,0.01,WeatherDisplay:10.37,2013-07-05 03:58:00,